| time (UTC) | temp F | wind direction | speed MPH | gust MPH | rain 1hr in | rain 24hr in | rain mn in | humidity % | barometer mb |
| 20260507035802 | 40 | 279 | 0.0 | 0.0 | 0.00 | 0.00 | 0.00 | 76 | 1009.4 |
| 20260507035248 | 40 | 279 | 0.0 | 0.0 | 0.00 | 0.00 | 0.00 | 76 | 1009.4 |
| 20260507034744 | 40 | 279 | 0.0 | 0.0 | 0.00 | 0.00 | 0.00 | 76 | 1009.4 |
| 20260507034239 | 40 | 279 | 0.0 | 0.0 | 0.00 | 0.00 | 0.00 | 75 | 1009.4 |
| 20260507033648 | 40 | 279 | 0.0 | 0.0 | 0.00 | 0.00 | 0.00 | 73 | 1009.4 |
| 20260507033148 | 40 | 279 | 0.0 | 0.0 | 0.00 | 0.00 | 0.00 | 71 | 1009.4 |
| 20260507032652 | 40 | 279 | 0.0 | 0.0 | 0.00 | 0.00 | 0.00 | 69 | 1009.5 |
| 20260507032143 | 40 | 279 | 0.0 | 0.0 | 0.00 | 0.00 | 0.00 | 69 | 1009.5 |
| 20260507031602 | 40 | 279 | 0.0 | 0.0 | 0.00 | 0.00 | 0.00 | 69 | 1009.5 |
| 20260507031047 | 40 | 279 | 0.0 | 0.0 | 0.00 | 0.00 | 0.00 | 69 | 1009.7 |
| 20260507030750 | 40 | 279 | 0.0 | 0.0 | 0.00 | 0.00 | 0.00 | 68 | 1009.7 |
| 20260507030004 | 41 | 279 | 0.0 | 0.0 | 0.00 | 0.00 | 0.00 | 68 | 1009.8 |
| 20260507025453 | 41 | 279 | 0.0 | 0.0 | 0.00 | 0.00 | 0.00 | 68 | 1009.8 |
| 20260507024857 | 41 | 279 | 0.0 | 0.0 | 0.00 | 0.00 | 0.00 | 66 | 1009.8 |
| 20260507024625 | 41 | 279 | 0.0 | 0.0 | 0.00 | 0.00 | 0.00 | 67 | 1009.7 |
| 20260507024042 | 41 | 279 | 0.0 | 0.0 | 0.00 | 0.00 | 0.00 | 65 | 1009.7 |
| 20260507023245 | 41 | 279 | 0.0 | 0.0 | 0.00 | 0.00 | 0.00 | 66 | 1009.7 |
| 20260507022743 | 41 | 279 | 0.0 | 0.0 | 0.00 | 0.00 | 0.00 | 66 | 1009.5 |
| 20260507022437 | 41 | 279 | 0.0 | 0.0 | 0.00 | 0.00 | 0.00 | 67 | 1009.5 |
| 20260507021649 | 41 | 279 | 0.0 | 0.0 | 0.00 | 0.00 | 0.00 | 65 | 1009.5 |
| 20260507021048 | 41 | 279 | 0.0 | 0.0 | 0.00 | 0.00 | 0.00 | 64 | 1009.5 |
| 20260507020602 | 41 | 279 | 0.0 | 0.0 | 0.00 | 0.00 | 0.00 | 63 | 1009.5 |
| 20260507020105 | 41 | 279 | 0.0 | 0.0 | 0.00 | 0.00 | 0.00 | 61 | 1009.5 |
| 20260507015550 | 41 | 279 | 0.0 | 0.0 | 0.00 | 0.00 | 0.00 | 61 | 1009.5 |
| 20260507015049 | 41 | 279 | 0.0 | 0.0 | 0.00 | 0.00 | 0.00 | 60 | 1009.5 |
| 20260507014737 | 41 | 279 | 0.0 | 0.0 | 0.00 | 0.00 | 0.00 | 60 | 1009.4 |
| 20260507013940 | 42 | 279 | 0.0 | 0.0 | 0.00 | 0.00 | 0.00 | 59 | 1009.5 |
| 20260507013400 | 42 | 279 | 0.0 | 0.0 | 0.00 | 0.00 | 0.00 | 59 | 1009.5 |
| 20260507012859 | 42 | 279 | 0.0 | 0.0 | 0.00 | 0.00 | 0.00 | 58 | 1009.5 |
| 20260507012636 | 43 | 279 | 0.0 | 0.0 | 0.00 | 0.00 | 0.00 | 57 | 1009.5 |
| 20260507011756 | 43 | 279 | 0.0 | 0.0 | 0.00 | 0.00 | 0.00 | 56 | 1009.6 |
| 20260507011247 | 44 | 279 | 0.0 | 1.0 | 0.00 | 0.00 | 0.00 | 55 | 1009.3 |
| 20260507010750 | 44 | 279 | 0.0 | 2.0 | 0.00 | 0.00 | 0.00 | 54 | 1009.3 |
| 20260507010238 | 45 | 279 | 1.0 | 5.0 | 0.00 | 0.00 | 0.00 | 52 | 1009.2 |
| 20260507010225 | 45 | 279 | 0.0 | 2.0 | 0.00 | 0.00 | 0.00 | 53 | 1009.4 |
| 20260507005149 | 46 | 279 | 1.0 | 5.0 | 0.00 | 0.00 | 0.00 | 51 | 1009.3 |
| 20260507004951 | 46 | 252 | 1.0 | 5.0 | 0.00 | 0.00 | 0.00 | 50 | 1009.3 |
| 20260507004148 | 47 | 292 | 1.0 | 5.0 | 0.00 | 0.00 | 0.00 | 50 | 1009.3 |
| 20260507003650 | 47 | 269 | 1.0 | 5.0 | 0.00 | 0.00 | 0.00 | 49 | 1009.3 |
| 20260507003135 | 47 | 259 | 2.0 | 6.0 | 0.00 | 0.00 | 0.00 | 48 | 1009.4 |
| 20260507002610 | 47 | 232 | 2.0 | 6.0 | 0.00 | 0.00 | 0.00 | 47 | 1009.3 |
| 20260507002109 | 48 | 278 | 2.0 | 6.0 | 0.00 | 0.00 | 0.00 | 46 | 1009.3 |
| 20260507001717 | 49 | 263 | 4.0 | 8.0 | 0.00 | 0.00 | 0.00 | 45 | 1009.1 |
| 20260507001655 | 48 | 294 | 3.0 | 8.0 | 0.00 | 0.00 | 0.00 | 46 | 1009.3 |
| 20260507000911 | 49 | 271 | 4.0 | 9.0 | 0.00 | 0.00 | 0.00 | 44 | 1009.1 |
| 20260507000106 | 49 | 257 | 4.0 | 9.0 | 0.00 | 0.00 | 0.00 | 44 | 1009.1 |
| 20260506235603 | 50 | 229 | 3.0 | 7.0 | 0.00 | 0.00 | 0.00 | 43 | 1009.2 |
| 20260506235104 | 50 | 288 | 4.0 | 10.0 | 0.00 | 0.00 | 0.00 | 43 | 1009.2 |
| 20260506234604 | 50 | 300 | 3.0 | 10.0 | 0.00 | 0.00 | 0.00 | 43 | 1009.2 |
| 20260506234410 | 50 | 276 | 2.0 | 8.0 | 0.00 | 0.00 | 0.00 | 42 | 1009.0 |
| 20260506233550 | 50 | 340 | 2.0 | 8.0 | 0.00 | 0.00 | 0.00 | 43 | 1009.1 |
| 20260506233050 | 50 | 337 | 2.0 | 8.0 | 0.00 | 0.00 | 0.00 | 44 | 1009.1 |
| 20260506232552 | 50 | 255 | 2.0 | 7.0 | 0.00 | 0.00 | 0.00 | 43 | 1009.1 |
| 20260506232049 | 50 | 297 | 2.0 | 8.0 | 0.00 | 0.00 | 0.00 | 43 | 1009.1 |
| 20260506231546 | 50 | 321 | 3.0 | 10.0 | 0.00 | 0.00 | 0.00 | 43 | 1009.1 |
| 20260506231339 | 50 | 328 | 3.0 | 10.0 | 0.00 | 0.00 | 0.00 | 43 | 1009.1 |
| 20260506230532 | 50 | 282 | 4.0 | 12.0 | 0.00 | 0.00 | 0.00 | 42 | 1009.1 |
| 20260506230010 | 50 | 266 | 3.0 | 14.0 | 0.00 | 0.00 | 0.00 | 42 | 1009.1 |
| 20260506225509 | 51 | 246 | 3.0 | 14.0 | 0.00 | 0.00 | 0.00 | 42 | 1009.1 |
| 20260506225009 | 51 | 307 | 4.0 | 11.0 | 0.00 | 0.00 | 0.00 | 43 | 1009.1 |
| 20260506224512 | 51 | 271 | 3.0 | 11.0 | 0.00 | 0.00 | 0.00 | 41 | 1009.1 |
| 20260506224008 | 51 | 253 | 3.0 | 9.0 | 0.00 | 0.00 | 0.00 | 42 | 1009.2 |
| 20260506223505 | 51 | 300 | 4.0 | 9.0 | 0.00 | 0.00 | 0.00 | 42 | 1009.1 |
| 20260506223312 | 51 | 276 | 4.0 | 13.0 | 0.00 | 0.00 | 0.00 | 41 | 1009.1 |
| 20260506222505 | 51 | 213 | 4.0 | 13.0 | 0.00 | 0.00 | 0.00 | 41 | 1009.1 |
| 20260506222005 | 51 | 271 | 5.0 | 12.0 | 0.00 | 0.00 | 0.00 | 41 | 1009.1 |
| 20260506221502 | 51 | 280 | 4.0 | 12.0 | 0.00 | 0.00 | 0.00 | 40 | 1009.0 |
| 20260506221003 | 51 | 279 | 3.0 | 10.0 | 0.00 | 0.00 | 0.00 | 41 | 1009.1 |
| 20260506220804 | 51 | 330 | 3.0 | 13.0 | 0.00 | 0.00 | 0.00 | 41 | 1009.1 |
| 20260506220002 | 51 | 243 | 4.0 | 13.0 | 0.00 | 0.00 | 0.00 | 40 | 1008.8 |
| 20260506215505 | 52 | 333 | 3.0 | 10.0 | 0.00 | 0.00 | 0.00 | 41 | 1008.8 |
| 20260506215002 | 52 | 261 | 3.0 | 6.0 | 0.00 | 0.00 | 0.00 | 40 | 1008.8 |
| 20260506214807 | 52 | 333 | 2.0 | 5.0 | 0.00 | 0.00 | 0.00 | 41 | 1008.9 |
| 20260506213958 | 51 | 286 | 3.0 | 9.0 | 0.00 | 0.00 | 0.00 | 43 | 1008.9 |
| 20260506213458 | 51 | 292 | 4.0 | 11.0 | 0.00 | 0.00 | 0.00 | 40 | 1008.9 |
| 20260506213307 | 52 | 281 | 3.0 | 13.0 | 0.00 | 0.00 | 0.00 | 40 | 1009.0 |
| 20260506212457 | 52 | 259 | 4.0 | 13.0 | 0.00 | 0.00 | 0.00 | 40 | 1009.0 |
| 20260506211956 | 51 | 335 | 5.0 | 13.0 | 0.00 | 0.00 | 0.00 | 43 | 1009.0 |
| 20260506211806 | 51 | 200 | 6.0 | 12.0 | 0.00 | 0.00 | 0.00 | 41 | 1009.0 |
| 20260506210955 | 51 | 240 | 5.0 | 11.0 | 0.00 | 0.00 | 0.00 | 40 | 1009.0 |
| 20260506210453 | 51 | 276 | 5.0 | 12.0 | 0.00 | 0.00 | 0.00 | 40 | 1009.0 |
| 20260506205952 | 51 | 286 | 5.0 | 12.0 | 0.00 | 0.00 | 0.00 | 41 | 1008.9 |
| 20260506205454 | 52 | 281 | 4.0 | 10.0 | 0.00 | 0.00 | 0.00 | 40 | 1008.9 |
| 20260506204953 | 52 | 236 | 4.0 | 10.0 | 0.00 | 0.00 | 0.00 | 40 | 1008.9 |
| 20260506204452 | 52 | 243 | 3.0 | 9.0 | 0.00 | 0.00 | 0.00 | 41 | 1009.0 |
| 20260506203951 | 52 | 243 | 2.0 | 8.0 | 0.00 | 0.00 | 0.00 | 39 | 1009.0 |
| 20260506203449 | 52 | 294 | 2.0 | 8.0 | 0.00 | 0.00 | 0.00 | 40 | 1009.0 |
| 20260506202949 | 52 | 284 | 4.0 | 11.0 | 0.00 | 0.00 | 0.00 | 40 | 1009.1 |
| 20260506202745 | 53 | 30 | 4.0 | 11.0 | 0.00 | 0.00 | 0.00 | 37 | 1009.2 |
| 20260506201912 | 54 | 343 | 5.0 | 11.0 | 0.00 | 0.00 | 0.00 | 40 | 1009.3 |
| 20260506201413 | 53 | 240 | 4.0 | 11.0 | 0.00 | 0.00 | 0.00 | 37 | 1009.2 |
| 20260506200911 | 53 | 309 | 3.0 | 9.0 | 0.00 | 0.00 | 0.00 | 41 | 1009.2 |
| 20260506200413 | 52 | 350 | 2.0 | 8.0 | 0.00 | 0.00 | 0.00 | 40 | 1009.1 |
| 20260506195902 | 52 | 256 | 2.0 | 7.0 | 0.00 | 0.00 | 0.00 | 41 | 1009.1 |
| 20260506195400 | 52 | 298 | 3.0 | 7.0 | 0.00 | 0.00 | 0.00 | 41 | 1009.1 |
| 20260506194858 | 52 | 305 | 3.0 | 7.0 | 0.00 | 0.00 | 0.00 | 40 | 1009.1 |
| 20260506194359 | 52 | 309 | 3.0 | 9.0 | 0.00 | 0.00 | 0.00 | 41 | 1009.1 |
| 20260506193858 | 51 | 214 | 4.0 | 11.0 | 0.00 | 0.00 | 0.00 | 40 | 1009.1 |
| 20260506193701 | 52 | 266 | 5.0 | 14.0 | 0.00 | 0.00 | 0.00 | 40 | 1009.1 |
| 20260506192900 | 52 | 295 | 5.0 | 14.0 | 0.00 | 0.00 | 0.00 | 39 | 1009.1 |
| 20260506192354 | 53 | 228 | 5.0 | 12.0 | 0.00 | 0.00 | 0.00 | 38 | 1009.2 |
| 20260506192205 | 52 | 215 | 4.0 | 12.0 | 0.00 | 0.00 | 0.00 | 39 | 1009.1 |
| 20260506191351 | 51 | 220 | 3.0 | 9.0 | 0.00 | 0.00 | 0.00 | 39 | 1009.1 |
| 20260506190852 | 51 | 247 | 3.0 | 9.0 | 0.00 | 0.00 | 0.00 | 41 | 1009.1 |
| 20260506190353 | 51 | 323 | 3.0 | 10.0 | 0.00 | 0.00 | 0.00 | 41 | 1009.1 |
| 20260506185837 | 51 | 348 | 4.0 | 12.0 | 0.00 | 0.00 | 0.00 | 42 | 1009.1 |
| 20260506185313 | 52 | 195 | 4.0 | 12.0 | 0.00 | 0.00 | 0.00 | 41 | 1009.1 |
| 20260506184815 | 52 | 321 | 4.0 | 11.0 | 0.00 | 0.00 | 0.00 | 41 | 1009.1 |
| 20260506184313 | 52 | 286 | 3.0 | 8.0 | 0.00 | 0.00 | 0.00 | 40 | 1009.2 |
| 20260506183811 | 53 | 273 | 3.0 | 11.0 | 0.00 | 0.00 | 0.00 | 42 | 1009.3 |
| 20260506183608 | 52 | 288 | 4.0 | 11.0 | 0.00 | 0.00 | 0.00 | 46 | 1009.2 |
| 20260506182812 | 50 | 273 | 4.0 | 13.0 | 0.00 | 0.00 | 0.00 | 43 | 1009.2 |
| 20260506182308 | 50 | 229 | 4.0 | 14.0 | 0.00 | 0.00 | 0.00 | 43 | 1009.2 |
| 20260506182112 | 51 | 304 | 5.0 | 14.0 | 0.00 | 0.00 | 0.00 | 41 | 1009.2 |
| 20260506181308 | 51 | 240 | 5.0 | 12.0 | 0.00 | 0.00 | 0.00 | 41 | 1009.3 |
| 20260506180806 | 51 | 237 | 4.0 | 10.0 | 0.00 | 0.00 | 0.00 | 43 | 1009.3 |
| 20260506180305 | 51 | 263 | 4.0 | 18.0 | 0.00 | 0.00 | 0.00 | 42 | 1009.2 |
| 20260506175805 | 51 | 306 | 4.0 | 18.0 | 0.00 | 0.00 | 0.00 | 43 | 1009.5 |
| 20260506175306 | 51 | 257 | 3.0 | 9.0 | 0.00 | 0.00 | 0.00 | 43 | 1009.5 |
| 20260506174804 | 51 | 281 | 1.0 | 9.0 | 0.00 | 0.00 | 0.00 | 43 | 1009.5 |
| 20260506174253 | 50 | 301 | 2.0 | 6.0 | 0.00 | 0.00 | 0.00 | 44 | 1009.5 |
| 20260506173755 | 50 | 343 | 3.0 | 8.0 | 0.00 | 0.00 | 0.00 | 44 | 1009.4 |
| 20260506173255 | 50 | 245 | 3.0 | 8.0 | 0.00 | 0.00 | 0.00 | 42 | 1009.5 |
| 20260506173104 | 51 | 272 | 2.0 | 7.0 | 0.00 | 0.00 | 0.00 | 44 | 1009.5 |
| 20260506172253 | 51 | 342 | 3.0 | 8.0 | 0.00 | 0.00 | 0.00 | 44 | 1009.5 |
| 20260506172059 | 51 | 274 | 2.0 | 8.0 | 0.00 | 0.00 | 0.00 | 40 | 1009.5 |
| 20260506171550 | 51 | 213 | 3.0 | 6.0 | 0.00 | 0.00 | 0.00 | 43 | 1009.5 |
| 20260506170751 | 51 | 300 | 4.0 | 8.0 | 0.00 | 0.00 | 0.00 | 41 | 1009.6 |
| 20260506170555 | 51 | 209 | 4.0 | 8.0 | 0.00 | 0.00 | 0.00 | 42 | 1009.6 |
| 20260506165744 | 51 | 286 | 3.0 | 7.0 | 0.00 | 0.00 | 0.00 | 44 | 1009.6 |
| 20260506165240 | 51 | 244 | 2.0 | 7.0 | 0.00 | 0.00 | 0.00 | 44 | 1009.6 |
| 20260506164737 | 50 | 294 | 2.0 | 7.0 | 0.00 | 0.00 | 0.00 | 45 | 1009.6 |
| 20260506164239 | 50 | 331 | 2.0 | 7.0 | 0.00 | 0.00 | 0.00 | 46 | 1009.8 |
| 20260506163703 | 49 | 306 | 1.0 | 5.0 | 0.00 | 0.00 | 0.00 | 47 | 1009.8 |
| 20260506163156 | 49 | 11 | 2.0 | 5.0 | 0.00 | 0.00 | 0.00 | 47 | 1009.8 |
| 20260506162654 | 49 | 315 | 2.0 | 5.0 | 0.00 | 0.00 | 0.00 | 48 | 1009.9 |
| 20260506162205 | 49 | 295 | 3.0 | 7.0 | 0.00 | 0.00 | 0.00 | 48 | 1009.8 |
| 20260506161701 | 49 | 271 | 4.0 | 7.0 | 0.00 | 0.00 | 0.00 | 47 | 1009.9 |
| 20260506161201 | 49 | 42 | 2.0 | 6.0 | 0.00 | 0.00 | 0.00 | 49 | 1009.9 |
| 20260506161018 | 49 | 331 | 1.0 | 4.0 | 0.00 | 0.00 | 0.00 | 52 | 1009.9 |
| 20260506160146 | 49 | 319 | 1.0 | 4.0 | 0.00 | 0.00 | 0.00 | 50 | 1009.9 |
| 20260506155950 | 49 | 340 | 2.0 | 6.0 | 0.00 | 0.00 | 0.00 | 50 | 1009.9 |
| 20260506155059 | 49 | 193 | 2.0 | 6.0 | 0.00 | 0.00 | 0.00 | 51 | 1009.9 |
| 20260506154601 | 48 | 271 | 2.0 | 5.0 | 0.00 | 0.00 | 0.00 | 53 | 1009.8 |
| 20260506154355 | 48 | 216 | 4.0 | 9.0 | 0.00 | 0.00 | 0.00 | 53 | 1009.8 |
| 20260506153600 | 48 | 202 | 4.0 | 9.0 | 0.00 | 0.00 | 0.00 | 51 | 1009.8 |
| 20260506153056 | 48 | 210 | 4.0 | 9.0 | 0.00 | 0.00 | 0.00 | 51 | 1009.8 |
| 20260506152554 | 49 | 254 | 3.0 | 8.0 | 0.00 | 0.00 | 0.00 | 48 | 1009.8 |
| 20260506152053 | 49 | 206 | 3.0 | 7.0 | 0.00 | 0.00 | 0.00 | 51 | 1009.8 |
| 20260506151555 | 49 | 293 | 2.0 | 7.0 | 0.00 | 0.00 | 0.00 | 49 | 1009.9 |
| 20260506151356 | 49 | 243 | 1.0 | 4.0 | 0.00 | 0.00 | 0.00 | 51 | 1009.7 |
| 20260506150551 | 49 | 335 | 1.0 | 4.0 | 0.00 | 0.00 | 0.00 | 50 | 1009.7 |
| 20260506150404 | 49 | 42 | 1.0 | 5.0 | 0.00 | 0.00 | 0.00 | 53 | 1009.7 |
| 20260506145550 | 48 | 91 | 1.0 | 5.0 | 0.00 | 0.00 | 0.00 | 53 | 1009.8 |
| 20260506145055 | 48 | 204 | 1.0 | 4.0 | 0.00 | 0.00 | 0.00 | 52 | 1009.8 |
| 20260506144541 | 47 | 155 | 1.0 | 5.0 | 0.00 | 0.00 | 0.00 | 55 | 1009.8 |
| 20260506144041 | 47 | 244 | 1.0 | 5.0 | 0.00 | 0.00 | 0.00 | 57 | 1009.7 |
| 20260506143535 | 47 | 65 | 1.0 | 4.0 | 0.00 | 0.00 | 0.00 | 58 | 1009.7 |
| 20260506143020 | 46 | 67 | 1.0 | 4.0 | 0.00 | 0.00 | 0.00 | 57 | 1009.7 |
| 20260506142518 | 46 | 304 | 1.0 | 3.0 | 0.00 | 0.00 | 0.00 | 58 | 1009.5 |
| 20260506142011 | 46 | 232 | 1.0 | 3.0 | 0.00 | 0.00 | 0.00 | 58 | 1009.5 |
| 20260506141507 | 46 | 355 | 1.0 | 3.0 | 0.00 | 0.00 | 0.00 | 60 | 1009.3 |
| 20260506140957 | 45 | 5 | 1.0 | 3.0 | 0.00 | 0.00 | 0.00 | 61 | 1009.2 |
| 20260506140446 | 45 | 53 | 1.0 | 3.0 | 0.00 | 0.00 | 0.00 | 63 | 1009.2 |
| 20260506135947 | 45 | 209 | 1.0 | 4.0 | 0.00 | 0.00 | 0.00 | 61 | 1009.2 |
| 20260506135445 | 45 | 119 | 1.0 | 4.0 | 0.00 | 0.00 | 0.00 | 62 | 1009.2 |
| 20260506134947 | 44 | 108 | 2.0 | 4.0 | 0.00 | 0.00 | 0.00 | 63 | 1009.2 |
| 20260506134437 | 44 | 355 | 2.0 | 4.0 | 0.00 | 0.00 | 0.00 | 64 | 1009.3 |
| 20260506134215 | 43 | 342 | 2.0 | 4.0 | 0.00 | 0.00 | 0.00 | 68 | 1009.3 |
| 20260506133419 | 43 | 133 | 2.0 | 6.0 | 0.00 | 0.00 | 0.00 | 67 | 1009.3 |
| 20260506132913 | 43 | 96 | 2.0 | 6.0 | 0.00 | 0.00 | 0.00 | 68 | 1009.2 |
| 20260506132352 | 42 | 91 | 2.0 | 5.0 | 0.00 | 0.00 | 0.00 | 70 | 1009.1 |
| 20260506131841 | 42 | 38 | 2.0 | 5.0 | 0.00 | 0.00 | 0.00 | 71 | 1009.1 |
| 20260506131639 | 42 | 57 | 1.0 | 5.0 | 0.00 | 0.00 | 0.00 | 72 | 1009.1 |
| 20260506131134 | 42 | 31 | 1.0 | 5.0 | 0.00 | 0.00 | 0.00 | 74 | 1009.1 |
| 20260506130310 | 41 | 39 | 2.0 | 5.0 | 0.00 | 0.00 | 0.00 | 75 | 1009.1 |
| 20260506125810 | 41 | 121 | 1.0 | 5.0 | 0.00 | 0.00 | 0.00 | 76 | 1008.9 |
| 20260506125308 | 41 | 75 | 1.0 | 2.0 | 0.00 | 0.00 | 0.00 | 79 | 1008.9 |
| 20260506124807 | 40 | 355 | 1.0 | 5.0 | 0.00 | 0.00 | 0.00 | 80 | 1008.9 |
| 20260506124600 | 40 | 19 | 1.0 | 5.0 | 0.00 | 0.00 | 0.00 | 79 | 1008.8 |
| 20260506123751 | 40 | 37 | 1.0 | 3.0 | 0.00 | 0.00 | 0.00 | 80 | 1008.7 |
| 20260506123250 | 39 | 51 | 0.0 | 3.0 | 0.00 | 0.00 | 0.00 | 83 | 1008.7 |
| 20260506122748 | 39 | 50 | 0.0 | 4.0 | 0.00 | 0.00 | 0.00 | 85 | 1008.7 |
| 20260506122243 | 38 | 331 | 0.0 | 4.0 | 0.00 | 0.00 | 0.00 | 86 | 1008.6 |
| 20260506121744 | 37 | 304 | 0.0 | 0.0 | 0.00 | 0.00 | 0.00 | 89 | 1008.6 |
| 20260506121238 | 37 | 303 | 0.0 | 0.0 | 0.00 | 0.00 | 0.00 | 91 | 1008.0 |
| 20260506120709 | 36 | 303 | 0.0 | 0.0 | 0.00 | 0.00 | 0.00 | 92 | 1007.9 |
| 20260506120204 | 34 | 303 | 0.0 | 0.0 | 0.00 | 0.00 | 0.00 | 93 | 1007.9 |
| 20260506115650 | 33 | 303 | 0.0 | 0.0 | 0.00 | 0.00 | 0.00 | 94 | 1007.4 |
| 20260506115429 | 32 | 303 | 0.0 | 0.0 | 0.00 | 0.00 | 0.00 | 93 | 1007.3 |
| 20260506114628 | 32 | 303 | 0.0 | 0.0 | 0.00 | 0.00 | 0.00 | 93 | 1007.3 |
| 20260506114127 | 31 | 303 | 0.0 | 0.0 | 0.00 | 0.00 | 0.00 | 94 | 1007.1 |
| 20260506113557 | 30 | 303 | 0.0 | 0.0 | 0.00 | 0.00 | 0.00 | 93 | 1007.1 |
| 20260506113145 | 30 | 302 | 0.0 | 0.0 | 0.00 | 0.00 | 0.00 | 93 | 1006.9 |
| 20260506113130 | 30 | 303 | 0.0 | 0.0 | 0.00 | 0.00 | 0.00 | 93 | 1007.0 |
| 20260506112036 | 29 | 303 | 0.0 | 0.0 | 0.00 | 0.00 | 0.00 | 92 | 1006.9 |
| 20260506111503 | 29 | 303 | 0.0 | 0.0 | 0.00 | 0.00 | 0.00 | 92 | 1006.9 |
| 20260506111005 | 29 | 303 | 0.0 | 0.0 | 0.00 | 0.00 | 0.00 | 92 | 1006.7 |
| 20260506110454 | 29 | 303 | 0.0 | 0.0 | 0.00 | 0.00 | 0.00 | 92 | 1006.7 |
| 20260506105945 | 29 | 302 | 0.0 | 0.0 | 0.00 | 0.00 | 0.00 | 92 | 1006.9 |
| 20260506105444 | 29 | 303 | 0.0 | 0.0 | 0.00 | 0.00 | 0.00 | 92 | 1006.9 |
| 20260506105154 | 29 | 303 | 0.0 | 0.0 | 0.00 | 0.00 | 0.00 | 92 | 1006.9 |
| 20260506104410 | 29 | 303 | 0.0 | 0.0 | 0.00 | 0.00 | 0.00 | 92 | 1006.9 |
| 20260506103902 | 29 | 303 | 0.0 | 0.0 | 0.00 | 0.00 | 0.00 | 92 | 1006.9 |
| 20260506103402 | 29 | 303 | 0.0 | 0.0 | 0.00 | 0.00 | 0.00 | 92 | 1006.9 |
| 20260506102900 | 29 | 303 | 0.0 | 0.0 | 0.00 | 0.00 | 0.00 | 91 | 1006.7 |
| 20260506102359 | 29 | 303 | 0.0 | 0.0 | 0.00 | 0.00 | 0.00 | 91 | 1006.7 |
| 20260506101854 | 29 | 303 | 0.0 | 0.0 | 0.00 | 0.00 | 0.00 | 91 | 1006.7 |
| 20260506101351 | 29 | 303 | 0.0 | 0.0 | 0.00 | 0.00 | 0.00 | 91 | 1006.4 |
| 20260506101133 | 29 | 303 | 0.0 | 0.0 | 0.00 | 0.00 | 0.00 | 91 | 1006.4 |
| 20260506100332 | 29 | 303 | 0.0 | 0.0 | 0.00 | 0.00 | 0.00 | 91 | 1006.2 |
| 20260506100322 | 29 | 303 | 0.0 | 0.0 | 0.00 | 0.00 | 0.00 | 91 | 1006.4 |
| 20260506095542 | 29 | 303 | 0.0 | 0.0 | 0.00 | 0.00 | 0.00 | 91 | 1006.2 |
| 20260506094746 | 29 | 303 | 0.0 | 0.0 | 0.00 | 0.00 | 0.00 | 91 | 1006.2 |
| 20260506094235 | 29 | 302 | 0.0 | 0.0 | 0.00 | 0.00 | 0.00 | 91 | 1006.0 |
| 20260506093708 | 29 | 303 | 0.0 | 0.0 | 0.00 | 0.00 | 0.00 | 90 | 1006.0 |
| 20260506093218 | 29 | 303 | 0.0 | 0.0 | 0.00 | 0.00 | 0.00 | 90 | 1006.0 |
| 20260506092701 | 29 | 303 | 0.0 | 0.0 | 0.00 | 0.00 | 0.00 | 91 | 1005.7 |
| 20260506092202 | 28 | 303 | 0.0 | 0.0 | 0.00 | 0.00 | 0.00 | 91 | 1005.7 |
| 20260506091648 | 28 | 303 | 0.0 | 0.0 | 0.00 | 0.00 | 0.00 | 90 | 1005.6 |
| 20260506091145 | 28 | 303 | 0.0 | 0.0 | 0.00 | 0.00 | 0.00 | 90 | 1005.5 |
| 20260506090645 | 28 | 302 | 0.0 | 0.0 | 0.00 | 0.00 | 0.00 | 90 | 1005.5 |
| 20260506090154 | 28 | 303 | 0.0 | 0.0 | 0.00 | 0.00 | 0.00 | 90 | 1005.5 |
| 20260506085641 | 28 | 303 | 0.0 | 0.0 | 0.00 | 0.00 | 0.00 | 89 | 1005.5 |
| 20260506085059 | 28 | 303 | 0.0 | 0.0 | 0.00 | 0.00 | 0.00 | 88 | 1005.5 |
| 20260506084834 | 28 | 303 | 0.0 | 0.0 | 0.00 | 0.00 | 0.00 | 88 | 1005.5 |
| 20260506084037 | 28 | 303 | 0.0 | 0.0 | 0.00 | 0.00 | 0.00 | 88 | 1005.5 |
| 20260506083738 | 28 | 303 | 0.0 | 0.0 | 0.00 | 0.00 | 0.00 | 88 | 1005.6 |
| 20260506083237 | 28 | 303 | 0.0 | 0.0 | 0.00 | 0.00 | 0.00 | 88 | 1005.6 |
| 20260506082443 | 28 | 303 | 0.0 | 0.0 | 0.00 | 0.00 | 0.00 | 88 | 1005.6 |
| 20260506081921 | 29 | 303 | 0.0 | 0.0 | 0.00 | 0.00 | 0.00 | 87 | 1005.6 |
| 20260506081346 | 29 | 303 | 0.0 | 0.0 | 0.00 | 0.00 | 0.00 | 87 | 1005.6 |
| 20260506080848 | 29 | 303 | 0.0 | 0.0 | 0.00 | 0.00 | 0.00 | 86 | 1005.6 |
| 20260506080344 | 29 | 303 | 0.0 | 0.0 | 0.00 | 0.00 | 0.00 | 86 | 1005.6 |
| 20260506073251 | 30 | 303 | 0.0 | 0.0 | 0.00 | 0.00 | 0.00 | 86 | 1005.2 |
| 20260506072752 | 30 | 303 | 0.0 | 0.0 | 0.00 | 0.00 | 0.00 | 86 | 1005.0 |
| 20260506072241 | 30 | 303 | 0.0 | 0.0 | 0.00 | 0.00 | 0.00 | 85 | 1005.0 |
| 20260506071728 | 31 | 303 | 0.0 | 0.0 | 0.00 | 0.00 | 0.00 | 85 | 1005.1 |
| 20260506071219 | 31 | 303 | 0.0 | 0.0 | 0.00 | 0.00 | 0.00 | 86 | 1005.1 |
| 20260506071209 | 31 | 303 | 0.0 | 0.0 | 0.00 | 0.00 | 0.00 | 86 | 1005.1 |
| 20260506070109 | 31 | 303 | 0.0 | 0.0 | 0.00 | 0.00 | 0.00 | 85 | 1005.1 |
| 20260506062443 | 32 | 303 | 0.0 | 0.0 | 0.00 | 0.00 | 0.00 | 83 | 1005.6 |
| 20260506062145 | 33 | 303 | 0.0 | 0.0 | 0.00 | 0.00 | 0.00 | 82 | 1005.6 |
| 20260506061351 | 33 | 303 | 0.0 | 0.0 | 0.00 | 0.00 | 0.00 | 83 | 1005.7 |
| 20260506060847 | 33 | 303 | 0.0 | 0.0 | 0.00 | 0.00 | 0.00 | 82 | 1005.7 |
| 20260506060351 | 33 | 303 | 0.0 | 0.0 | 0.00 | 0.00 | 0.00 | 82 | 1005.7 |
| 20260506051043 | 35 | 302 | 0.0 | 0.0 | 0.00 | 0.00 | 0.00 | 78 | 1005.2 |
| 20260506050504 | 35 | 302 | 0.0 | 0.0 | 0.00 | 0.00 | 0.00 | 78 | 1005.2 |
| 20260506044940 | 36 | 302 | 0.0 | 0.0 | 0.00 | 0.00 | 0.00 | 75 | 1005.4 |
| 20260506044647 | 36 | 302 | 0.0 | 0.0 | 0.00 | 0.00 | 0.00 | 75 | 1005.4 |
| 20260506043853 | 37 | 302 | 0.0 | 0.0 | 0.00 | 0.00 | 0.00 | 75 | 1005.4 |
| 20260506043344 | 37 | 302 | 0.0 | 0.0 | 0.00 | 0.00 | 0.00 | 72 | 1005.4 |